When you browse on this site, cookies collect data to enhance your experience and personalize the content and advertising you see.
Visit our Privacy Policy to learn more. By continuing to use the site, you agree to this use of cookies and data.
  • In Hungary
  • List of Countries
  • For 7 days
  • Water Temperature
  • Weather Map
  • News
  • Weather Widgets
  • user-avatar
    Login

    Hourly Weather Pierzchnia

    Today, 23 September, Monday

    Time Temperature Precipitation Wind Pressure Humidity
    00:00 +12°C° 0 mm 0 mps 749 mmHg 72%
    01:00 +11°C° 0 mm 0 mps 749 mmHg 74%
    02:00 +12°C° 0 mm 1 mps 749 mmHg 76%
    03:00 +12°C° 0 mm 2 mps 749 mmHg 79%
    04:00 +10°C° 0 mm 2 mps 749 mmHg 81%
    05:00 +10°C° 0 mm 3 mps 749 mmHg 82%
    06:00 +11°C° 0 mm 3 mps 749 mmHg 83%
    07:00 +11°C° 0 mm 4 mps 750 mmHg 80%
    08:00 +13°C° 0 mm 4 mps 750 mmHg 77%
    09:00 +14°C° 0 mm 4 mps 750 mmHg 73%
    10:00 +15°C° 0 mm 5 mps 750 mmHg 70%
    11:00 +16°C° 0 mm 5 mps 750 mmHg 66%
    12:00 +17°C° 0 mm 5 mps 749 mmHg 63%
    13:00 +17°C° 0 mm 5 mps 750 mmHg 63%
    14:00 +17°C° 0 mm 5 mps 749 mmHg 64%
    15:00 +17°C° 0 mm 5 mps 749 mmHg 65%
    16:00 +16°C° 0 mm 5 mps 749 mmHg 66%
    17:00 +15°C° 0 mm 4 mps 749 mmHg 71%
    18:00 +13°C° 0 mm 4 mps 750 mmHg 76%
    19:00 +11°C° 0 mm 3 mps 750 mmHg 82%
    20:00 +11°C° 0 mm 3 mps 750 mmHg 83%
    21:00 +10°C° 0 mm 3 mps 750 mmHg 85%
    22:00 +9°C° 0 mm 3 mps 750 mmHg 86%
    23:00 +9°C° 0 mm 3 mps 750 mmHg 87%

    Tomorrow, 24 September, Tuesday

    Time Temperature Precipitation Wind Pressure Humidity
    00:00 +8°C° 0 mm 3 mps 750 mmHg 88%
    01:00 +8°C° 0 mm 3 mps 751 mmHg 89%
    02:00 +7°C° 0 mm 3 mps 750 mmHg 90%
    03:00 +7°C° 0 mm 2 mps 750 mmHg 91%
    04:00 +6°C° 0 mm 2 mps 750 mmHg 92%
    05:00 +7°C° 0 mm 2 mps 750 mmHg 89%
    06:00 +7°C° 0 mm 3 mps 750 mmHg 86%
    07:00 +8°C° 0 mm 3 mps 750 mmHg 83%
    08:00 +10°C° 0 mm 3 mps 750 mmHg 76%
    09:00 +12°C° 0 mm 3 mps 750 mmHg 69%
    10:00 +16°C° 0 mm 3 mps 750 mmHg 62%
    11:00 +17°C° 0 mm 3 mps 749 mmHg 57%
    12:00 +18°C° 0 mm 3 mps 749 mmHg 52%
    13:00 +19°C° 0 mm 3 mps 749 mmHg 47%
    14:00 +19°C° 0 mm 3 mps 748 mmHg 48%
    15:00 +19°C° 0 mm 2 mps 748 mmHg 50%
    16:00 +19°C° 0 mm 2 mps 748 mmHg 51%
    17:00 +17°C° 0 mm 3 mps 747 mmHg 57%
    18:00 +14°C° 0 mm 3 mps 747 mmHg 62%
    19:00 +12°C° 0 mm 3 mps 747 mmHg 68%
    20:00 +12°C° 0 mm 3 mps 747 mmHg 72%
    21:00 +11°C° 0 mm 3 mps 747 mmHg 75%
    22:00 +10°C° 0 mm 3 mps 747 mmHg 79%
    23:00 +10°C° 0 mm 3 mps 747 mmHg 81%

    Day after tomorrow, 25 September, Wednesday

    Time Temperature Precipitation Wind Pressure Humidity
    00:00 +10°C° 0 mm 3 mps 747 mmHg 83%
    01:00 +10°C° 0 mm 3 mps 746 mmHg 86%
    02:00 +10°C° 0 mm 3 mps 746 mmHg 85%
    03:00 +10°C° 0 mm 3 mps 746 mmHg 85%
    04:00 +10°C° 0 mm 3 mps 745 mmHg 84%
    05:00 +10°C° 0 mm 3 mps 745 mmHg 81%
    06:00 +11°C° 0 mm 3 mps 745 mmHg 79%
    07:00 +11°C° 0 mm 3 mps 745 mmHg 76%
    08:00 +13°C° 0 mm 3 mps 744 mmHg 73%
    09:00 +14°C° 0 mm 3 mps 744 mmHg 69%
    10:00 +16°C° 0 mm 3 mps 744 mmHg 65%
    11:00 +17°C° 0.1 mm 3 mps 744 mmHg 68%
    12:00 +17°C° 0.1 mm 2 mps 744 mmHg 71%
    13:00 +17°C° 0.1 mm 2 mps 744 mmHg 74%
    14:00 +16°C° 0.2 mm 2 mps 744 mmHg 79%
    15:00 +16°C° 0.2 mm 2 mps 743 mmHg 83%
    16:00 +15°C° 0.2 mm 2 mps 743 mmHg 88%
    17:00 +15°C° 0 mm 2 mps 743 mmHg 88%
    18:00 +15°C° 0 mm 2 mps 743 mmHg 89%
    19:00 +14°C° 0 mm 2 mps 744 mmHg 90%
    20:00 +14°C° 0 mm 1 mps 744 mmHg 90%
    21:00 +14°C° 0 mm 1 mps 744 mmHg 90%
    22:00 +14°C° 0 mm 1 mps 744 mmHg 91%
    23:00 +13°C° 0 mm 1 mps 744 mmHg 91%

    26 September, Thursday

    Time Temperature Precipitation Wind Pressure Humidity
    00:00 +13°C° 0 mm 1 mps 744 mmHg 92%
    01:00 +12°C° 0 mm 1 mps 744 mmHg 92%
    02:00 +12°C° 0 mm 1 mps 744 mmHg 92%
    03:00 +12°C° 0 mm 1 mps 744 mmHg 93%
    04:00 +12°C° 0 mm 1 mps 744 mmHg 93%
    05:00 +13°C° 0 mm 2 mps 744 mmHg 93%
    06:00 +13°C° 0 mm 2 mps 744 mmHg 92%
    07:00 +13°C° 0 mm 2 mps 745 mmHg 91%
    08:00 +14°C° 0 mm 2 mps 745 mmHg 86%
    09:00 +16°C° 0 mm 2 mps 745 mmHg 81%
    10:00 +17°C° 0 mm 2 mps 746 mmHg 76%
    11:00 +17°C° 0.1 mm 3 mps 746 mmHg 76%
    12:00 +17°C° 0.1 mm 3 mps 746 mmHg 76%
    13:00 +17°C° 0.1 mm 3 mps 746 mmHg 76%
    14:00 +17°C° 0.1 mm 3 mps 746 mmHg 75%
    15:00 +17°C° 0.1 mm 3 mps 746 mmHg 74%
    16:00 +17°C° 0.1 mm 3 mps 746 mmHg 73%
    17:00 +16°C° 0.1 mm 2 mps 746 mmHg 78%
    18:00 +15°C° 0.1 mm 2 mps 747 mmHg 82%
    19:00 +14°C° 0.1 mm 2 mps 747 mmHg 87%
    20:00 +14°C° 0.1 mm 2 mps 747 mmHg 88%
    21:00 +13°C° 0.1 mm 2 mps 748 mmHg 90%
    22:00 +13°C° 0.1 mm 2 mps 748 mmHg 91%
    23:00 +13°C° 0 mm 2 mps 748 mmHg 92%

    27 September, Friday

    Time Temperature Precipitation Wind Pressure Humidity
    00:00 +12°C° 0 mm 2 mps 748 mmHg 94%
    01:00 +12°C° 0 mm 2 mps 748 mmHg 95%
    02:00 +12°C° 0 mm 2 mps 748 mmHg 95%
    03:00 +12°C° 0 mm 2 mps 748 mmHg 95%
    04:00 +11°C° 0 mm 1 mps 749 mmHg 96%
    05:00 +12°C° 0 mm 1 mps 749 mmHg 94%
    06:00 +12°C° 0 mm 1 mps 749 mmHg 93%
    07:00 +13°C° 0 mm 1 mps 749 mmHg 91%
    08:00 +15°C° 0 mm 1 mps 749 mmHg 84%
    09:00 +16°C° 0 mm 1 mps 749 mmHg 77%
    10:00 +19°C° 0 mm 1 mps 749 mmHg 69%
    11:00 +19°C° 0 mm 2 mps 749 mmHg 64%
    12:00 +20°C° 0 mm 2 mps 749 mmHg 59%
    13:00 +21°C° 0 mm 2 mps 749 mmHg 54%
    14:00 +21°C° 0 mm 2 mps 749 mmHg 55%
    15:00 +21°C° 0 mm 2 mps 748 mmHg 56%
    16:00 +21°C° 0 mm 2 mps 748 mmHg 57%
    17:00 +20°C° 0 mm 2 mps 748 mmHg 60%
    18:00 +19°C° 0 mm 2 mps 748 mmHg 64%
    19:00 +17°C° 0 mm 2 mps 748 mmHg 67%
    20:00 +17°C° 0 mm 3 mps 748 mmHg 69%
    21:00 +17°C° 0 mm 3 mps 749 mmHg 71%
    22:00 +17°C° 0 mm 3 mps 749 mmHg 73%
    23:00 +16°C° 0.4 mm 3 mps 749 mmHg 78%

    28 September, Saturday

    Time Temperature Precipitation Wind Pressure Humidity
    00:00 +15°C° 0.4 mm 4 mps 748 mmHg 84%
    01:00 +14°C° 0.4 mm 4 mps 748 mmHg 89%
    02:00 +14°C° 0.1 mm 4 mps 748 mmHg 91%
    03:00 +14°C° 0.1 mm 3 mps 748 mmHg 92%
    04:00 +13°C° 0.1 mm 3 mps 749 mmHg 94%
    05:00 +14°C° 0 mm 3 mps 749 mmHg 92%
    06:00 +14°C° 0 mm 4 mps 749 mmHg 90%
    07:00 +14°C° 0 mm 4 mps 749 mmHg 87%
    08:00 +17°C° 0 mm 4 mps 749 mmHg 81%
    09:00 +18°C° 0 mm 4 mps 749 mmHg 74%
    10:00 +19°C° 0 mm 5 mps 749 mmHg 67%
    11:00 +20°C° 0.2 mm 5 mps 749 mmHg 62%
    12:00 +21°C° 0.2 mm 6 mps 749 mmHg 57%
    13:00 +21°C° 0.2 mm 6 mps 749 mmHg 52%
    14:00 +21°C° 0 mm 5 mps 748 mmHg 53%
    15:00 +21°C° 0 mm 4 mps 748 mmHg 53%
    16:00 +20°C° 0 mm 3 mps 748 mmHg 54%
    17:00 +19°C° 0 mm 2 mps 748 mmHg 56%
    18:00 +18°C° 0 mm 2 mps 748 mmHg 57%
    19:00 +18°C° 0 mm 1 mps 749 mmHg 59%
    20:00 +17°C° 0 mm 2 mps 749 mmHg 63%
    21:00 +16°C° 0 mm 2 mps 749 mmHg 67%
    22:00 +16°C° 0 mm 2 mps 749 mmHg 70%
    23:00 +15°C° 0 mm 2 mps 749 mmHg 73%
    Show more